Location: Kansas State University
(39.1938°N, 96.5858°W)
Time: 03:59:01
(UTC-05:00)

Daily predictions for brighter satellites

Satellite Brightness Start Highest point End
(mag) Time Altitude Azimuth Time Altitude Azimuth Time Altitude Azimuth
CZ-3 R/B 4.4 03:08:10 10° W 04:10:14 62° SSW 04:23:54 10° ESE
CZ-4C R/B 3.7 04:14:34 47° NE 04:14:34 47° NE 04:22:08 10° ESE
USA 229 DEB 4.3 04:30:27 51° ENE 04:30:27 51° ENE 04:35:49 10° NE
USA 229 4.3 04:30:31 51° ENE 04:30:31 51° ENE 04:35:54 10° NE
Okean O Rocket 4.4 04:26:59 10° NE 04:29:16 15° E 04:29:16 15° E
USA 267 3.4 04:39:47 10° SE 04:45:24 67° ESE 04:45:24 67° ESE
ADEOS II 3.0 05:03:14 10° NNE 05:06:30 39° NNE 05:06:30 39° NNE
Cosmos 1943 Rocket 3.6 05:11:17 27° N 05:11:17 27° N 05:13:56 10° NNE
CZ-4B R/B 4.2 05:11:50 10° NNE 05:17:04 45° E 05:22:22 10° S
Cosmos 1953 Rocket 4.2 05:28:06 49° NNE 05:28:06 49° NNE 05:31:22 10° NNE
SJ 16-02 3.3 05:23:35 10° SSE 05:27:21 29° E 05:31:08 10° NE
CZ-3 Stage 3 3.6 05:27:13 34° S 05:28:07 37° SSE 05:39:20 10° E
Cosmos 1356 Rocket 4.5 05:28:17 18° SSE 05:31:10 46° E 05:35:18 10° NNE
Cosmos 2341 Rocket 4.3 05:29:19 10° N 05:35:44 71° E 05:42:05 10° SSE
Cosmos 2181 Rocket 4.4 05:30:28 10° S 05:36:37 62° E 05:42:41 10° NNE
Nadezhda 1 Rocket 4.4 05:53:25 40° W 05:53:47 40° WNW 05:59:45 10° N
Cosmos 2369 Rocket 4.2 05:56:13 13° NNW 05:56:13 13° NNW 05:57:31 10° NNW
Cosmos 2227 Rocket 4.2 05:52:16 10° N 05:57:04 27° ENE 06:01:50 10° ESE
OAO 2 Rocket 3.8 05:57:15 40° SW 05:58:16 46° S 06:03:02 10° ESE
APEX 3.6 05:59:16 49° SW 05:59:16 49° SW 06:03:32 10° S
CZ-4C R/B 3.3 05:59:52 28° WNW 06:03:12 43° WSW 06:10:38 10° S
Cosmos 158 Rocket 4.1 05:59:23 10° NNW 06:04:48 81° ENE 06:10:12 10° SSE
Okean O Rocket 1.9 06:01:57 10° N 06:06:09 45° WNW 06:06:43 42° W
Meteor 1-31 Rocket 2.5 06:04:25 10° N 06:08:15 81° W 06:12:02 10° SSW
Tiangong 2 1.6 06:10:21 46° SSW 06:10:21 46° SSW 06:13:18 10° SE
Cosmos-2242 2.9 06:07:27 10° NNW 06:11:43 66° W 06:15:59 10° S
Lacrosse 5 4.2 06:11:25 10° NNW 06:12:21 10° N 06:13:18 10° N
Cosmos 1758 Rocket 4.4 06:14:18 30° WNW 06:14:18 30° WNW 06:17:42 10° NNW
Cosmos 1707 4.3 06:15:49 20° NW 06:15:49 20° NW 06:17:28 10° NNW
NOSS 3-1 (C) 3.6 06:14:56 26° WSW 06:18:00 50° NW 06:24:15 10° NNE
GPS 2-04 Rocket1 4.0 06:18:21 22° SW 06:18:53 23° SSW 06:21:52 10° SSE
ORS 1 (USA 231) 4.3 06:19:17 60° WNW 06:19:44 79° N 06:22:39 10° E
Okean-O 3.2 06:17:16 10° NNE 06:21:40 60° ESE 06:26:02 10° S
USA 81 3.9 06:16:36 10° S 06:21:51 73° W 06:27:08 10° N
Milstar 3 4.0 06:19:02 18° WSW 06:22:51 29° S 06:29:39 10° SE
Shenzhou-11 Module 4.0 06:23:53 17° SSW 06:23:53 17° SSW 06:25:32 10° S
NOSS 3-1 (A) 3.4 06:19:26 16° SW 06:24:03 63° NW 06:30:27 10° NNE
CZ-2C R/B 3.7 06:19:48 10° S 06:24:31 68° WSW 06:29:14 10° NNW
Cosmos 2219 3.1 06:19:03 10° NNW 06:24:41 68° WSW 06:30:15 10° S
Cosmos 2366 rocket 4.0 06:20:22 10° N 06:26:33 83° E 06:32:43 10° S
USA 267 4.2 06:24:21 10° S 06:29:40 27° SW 06:32:47 19° W
COSMO-SKYMED 1 3.1 06:27:47 10° SSE 06:32:03 63° ENE 06:36:22 10° N
Cosmos 2297 Rocket 3.4 06:29:36 10° N 06:35:01 44° ENE 06:40:23 10° SE
Cosmos 1356 3.4 06:32:59 10° SSW 06:36:23 56° W 06:39:51 10° N
EO 1 Del DPAF 3.1 06:33:10 10° SSE 06:37:00 83° WSW 06:40:51 10° NNW
Meteor 2-5 Rocket 4.2 06:31:40 10° SW 06:37:12 41° WNW 06:42:42 10° N
SL-8 Rocket 4.1 06:33:30 10° NNW 06:39:41 58° W 06:45:51 10° S
Cosmos 1269 Rocket 4.0 06:37:06 10° NNW 06:42:21 66° WSW 06:47:36 10° S
In-Cosmos 22 4.2 06:36:55 10° SSW 06:42:29 68° W 06:48:12 10° N
Cosmos 2221 3.8 06:39:30 10° N 06:43:45 46° E 06:47:58 10° SSE
Meteor 2-1 Rocket 4.3 06:40:46 10° N 06:46:42 82° W 06:52:30 10° S
ADEOS II 3.9 06:45:46 10° NW 06:47:26 11° WNW 06:47:26 11° WNW
Cosmos 1842 Rocket 3.5 06:43:43 10° NNW 06:48:03 66° W 06:52:20 10° S
Cosmos 372 Rocket 4.5 06:44:34 10° SW 06:49:24 38° WNW 06:54:18 10° N
NOSS 2-3 (C) 4.4 06:49:39 10° SSW 06:54:10 63° ESE 06:59:22 10° NE
Cosmos 864 Rocket 4.5 06:49:43 10° NNW 06:55:49 61° W 07:01:50 10° S
Cosmos 2084 Rocket 3.5 06:52:01 10° SSW 06:56:21 80° ESE 07:00:29 10° NE
CZ-4B R/B 4.2 06:53:03 10° NNW 06:57:20 24° WNW 07:01:39 10° WSW
IDEFIX/ARIANE 42P 2.7 06:53:23 10° NNE 06:58:39 80° ESE 07:03:51 10° S
Meteor 1-28 Rocket 4.0 06:57:39 10° SSW 07:01:01 29° W 07:04:24 10° NW
ERBS 2.7 06:58:03 10° NW 07:01:22 46° SW 07:04:42 10° SSE
PAYLOAD A 3.8 06:56:59 10° NNE 07:01:44 85° W 07:06:34 10° SSW
Cosmos 2369 3.7 06:57:29 10° SSW 07:03:07 87° WNW 07:08:48 10° NNE
Cosmos 1125 Rocket 4.5 07:00:16 10° WSW 07:04:38 26° WNW 07:09:04 10° N
Meteor 2-8 Rocket 4.5 06:59:18 10° SSW 07:05:23 64° W 07:11:29 10° N
SJ 16-02 2.5 07:02:23 10° WSW 07:05:55 23° WNW 07:09:28 10° N
Cosmos 2218 Rocket 4.4 07:00:43 10° NNW 07:06:31 42° W 07:12:22 10° SSW
NOAA 6 4.3 07:05:41 10° N 07:10:36 46° WNW 07:15:30 10° SW
Okean 3 Rocket 3.6 07:08:09 10° S 07:12:38 89° WNW 07:17:06 10° N
GP-B 3.7 07:10:33 10° SSE 07:14:55 62° E 07:19:19 10° N
Cosmos 494 Rocket 4.0 07:10:20 10° NNW 07:15:32 82° WSW 07:20:44 10° SSE
